Location: San Martino di Castrozza
(46.2667°N, 11.8000°E)
Time: 03:07:41
(UTC+00:00)

Cosmos 2298 Rocket - Pass Details

Date: 23 April 2021
Orbit: 777 x 783 km, 74.0° (Epoch: 15 May)

Event Time Altitude Azimuth Distance (km) Brightness Sun altitude
Exits shadow 02:19:33 19° 183° (S) 1,801 5.5 -17.6°
Maximum altitude 02:23:20 62° 107° (ESE) 878 4.4 -17.1°
Drops below altitude 10° 02:28:34 10° 28° (NNE) 2,338 7.6 -16.4°
Sets 02:30:59 0° 25° (NNE) 3,269 8.5 -16.1°
